Flag for El Salvador Weather past 2 weeks in San Salvador, El Salvador

Now
75 °F

Passing clouds.


Feels Like: 73 °F
Forecast: 67 / 77 °F
Wind: 3 mph from North

Location: El Salvador Intl. Airport / Comalapa

Current Time: Oct 22, 2014 at 4:10:06 AM

Latest Report: Oct 22, 2014 at 2:50 AM


Visibility: N/A

Pressure: 29.80 "Hg

Humidity: 100%

Dew point: 75 °F

Location of San SalvadorLocation

Historic Weather in San Salvador — Graph

°F

San Salvador temperature yesterday

Maximum temperature yesterday: 88 °F (at 1:50 PM)
Minimum temperature yesterday: 72 °F (at 5:50 AM)
Average temperature yesterday: 79 °F

Past Weeks' High & Low Weather Summary

 TemperatureHumidityPressure
High90 °F (Oct 7, 11:50 AM)100% (Oct 7, 2:50 AM)29.98 "Hg (Oct 7, 2:50 AM)
Low72 °F (Oct 21, 5:50 AM)22% (Oct 12, 2:00 PM)29.74 "Hg (Oct 7, 2:50 PM)
Average79 °F92%29.84 "Hg
* Reported Oct 7 2:50 AM — Oct 22 2:50 AM, San Salvador, Weather by CustomWeather, © 2014

Note: Actual official high and low records may vary slightly from our data, if they occured in-between our weather recording intervals... More about our weather records

Advertising

San Salvador weather history for previous 24 hours

 ConditionsComfort  
Time TempWeatherWind HumidityBarometerVisibility
2:50 AM
Oct 22
75 °FPassing clouds.3 mph100%29.80 "HgN/A
1:50 AM75 °FLight rain. Passing clouds.3 mph100%29.80 "Hg5 mi
12:50 AM73 °FHeavy rain. Passing clouds.7 mph100%29.80 "Hg4 mi
11:50 PM
Oct 21
75 °FPassing clouds.8 mph100%29.83 "HgN/A
10:50 PM77 °FThunderstorms. Passing clouds.6 mph100%29.86 "HgN/A
9:50 PM77 °FPassing clouds.5 mph100%29.83 "HgN/A
8:50 PM79 °FLight rain. Partly cloudy.2 mph100%29.83 "Hg4 mi
7:50 PM77 °FScattered showers. Passing clouds.2 mph100%29.83 "HgN/A
6:50 PM79 °FPassing clouds.1 mph100%29.80 "HgN/A
5:50 PM81 °FPassing clouds.1 mph100%29.77 "HgN/A
4:50 PM82 °FPartly sunny.6 mph84%29.74 "HgN/A
3:50 PM84 °FScattered clouds.7 mph79%29.74 "HgN/A
2:50 PM86 °FScattered clouds.6 mph70%29.74 "HgN/A
1:50 PM88 °FPassing clouds.8 mph70%29.77 "HgN/A
12:50 PM86 °FScattered clouds.8 mph70%29.80 "HgN/A
11:50 AM86 °FScattered clouds.8 mph70%29.83 "HgN/A
10:50 AM84 °FScattered clouds.5 mph74%29.83 "HgN/A
9:50 AM84 °FScattered clouds.1 mph74%29.86 "HgN/A
8:50 AM84 °FPassing clouds.2 mph74%29.86 "HgN/A
7:50 AM81 °FPassing clouds.3 mph84%29.86 "HgN/A
6:50 AM75 °FPassing clouds.2 mph100%29.83 "HgN/A
5:50 AM72 °FSunny.5 mph100%29.83 "Hg10 mi
4:50 AM73 °FClear.5 mph100%29.80 "Hg10 mi
Weather by CustomWeather, © 2014

See weather overviewHow to use our weather pages